This is the latest recevied weather packets stored in our database for station/object KK4KTV-13. If no packets are shown the sender has not sent any weather packets the latest 10 day(s).
| Time | Temp. | Humidity | Pressure | Rain* | Wind** | Luminosity | Snow |
|---|---|---|---|---|---|---|---|
| 1777523120 | 13.33° C | 80% | 1013.7 hPa | 0 mm | - | 0 W/m² | - |
| 1777522815 | 13.33° C | 81% | 1013.8 hPa | 0 mm | - | 0 W/m² | - |
| 1777522513 | 13.33° C | 81% | 1013.9 hPa | 0 mm | - | 0 W/m² | - |
| 1777522210 | 13.33° C | 81% | 1013.8 hPa | 0 mm | - | 0 W/m² | - |
| 1777521906 | 12.78° C | 82% | 1013.7 hPa | 0 mm | - | 0 W/m² | - |
| 1777521602 | 12.78° C | 83% | 1013.7 hPa | 0 mm | - | 0 W/m² | - |
| 1777521301 | 13.33° C | 82% | 1013.5 hPa | 0 mm | - | 0 W/m² | - |
| 1777520997 | 13.33° C | 81% | 1013.3 hPa | 0 mm | - | 0 W/m² | - |
| 1777520694 | 13.33° C | 82% | 1013.2 hPa | 0 mm | - | 0 W/m² | - |
| 1777520390 | 12.78° C | 83% | 1013.2 hPa | 0 mm | - | 0 W/m² | - |
| 1777520088 | 12.78° C | 86% | 1013.2 hPa | 0 mm | - | 0 W/m² | - |
| 1777519785 | 12.78° C | 87% | 1013 hPa | 0 mm | - | 0 W/m² | - |
| 1777519482 | 12.78° C | 88% | 1013.2 hPa | 0 mm | - | 0 W/m² | - |
| 1777519178 | 11.67° C | 93% | 1013.1 hPa | 0 mm | - | 0 W/m² | - |
| 1777518874 | 11.67° C | 97% | 1013.2 hPa | 0 mm | - | 0 W/m² | - |
| 1777518570 | 10.56° C | 98% | 1013.4 hPa | 0 mm | - | 0 W/m² | - |
| 1777518266 | 10.56° C | 98% | 1013.2 hPa | 0 mm | - | 0 W/m² | - |
| 1777517963 | 10.56° C | 98% | 1013.3 hPa | 0 mm | - | 0 W/m² | - |
| 1777517660 | 10.56° C | 97% | 1013.4 hPa | 0 mm | - | 0 W/m² | - |
| 1777517356 | 10.56° C | 97% | 1013.3 hPa | 0 mm | - | 0 W/m² | - |
| 1777517055 | 10.56° C | 97% | 1013.3 hPa | 0 mm | - | 0 W/m² | - |
| 1777516752 | 11.11° C | 97% | 1013.3 hPa | 0 mm | - | 0 W/m² | - |
| 1777516448 | 11.11° C | 97% | 1013.3 hPa | 0 mm | - | 0 W/m² | - |
| 1777516143 | 11.11° C | 97% | 1013.2 hPa | 0 mm | - | 0 W/m² | - |
| 1777515841 | 11.11° C | 97% | 1013.2 hPa | 0 mm | - | 0 W/m² | - |
* Rain latest hour (hover to see other rain measurements)
** Current wind speed in m/s (hover to see current wind gust speed)